World > North America > United States > Texas

Port Aransas, Texas Regional Weather

Lat: 27.83N, Lon: 97.06W
Wx Zone: TXZ243Web Search
Port Aransas Weather Warning NWS WEATHER ALERT FOR THE PORT ARANSAS, TX AREA - Issued: 441 AM CDT Wed Apr 14 2021 Port Aransas Weather Warning  

Helpful Tip: Abbreviated, 7 Day, 14 Day Forecasts. There is a weather forecast for every taste.

Feedback


°F Click to change Port Aransas hourly weather to Imperial units.Click to change Port Aransas hourly weather to Metric units. °C
Port Aransas Weather Map
UTC Time: 4/14/2021, 11:24
Your Time:

Port Aransas, TX Regional Weather

Expires:202104141200;;535850
ASUS44 KSJT 141115
RWRSJT
WEST CENTRAL TEXAS REGIONAL WEATHER ROUNDUP
NATIONAL WEATHER SERVICE SAN ANGELO TX
600 AM CDT WED APR 14 2021

NOTE: "FAIR" INDICATES FEW OR NO CLOUDS BELOW 12,000 FEET WITH NO
SIGNIFICANT WEATHER AND/OR OBSTRUCTIONS TO VISIBILITY.


TXZ229-232-234-239-242-243-245-247-249-250-
253-255-257-343-347-443-141200-
TEXAS COASTAL BEND, RIO GRANDE PLAINS DEEP SOUTH TEXAS
  
CITY           SKY/WX    TMP DP  RH WIND       PRES   REMARKS
VICTORIA       FOG       72  70  93 SE8       29.91R VSB 1            
BEEVILLE       CLOUDY    74  74 100 CALM      29.90S FOG              
ROCKPORT       CLOUDY    74  74 100 E5        29.91R FOG              
PORT ARANSAS   CLOUDY    73  73  99 NE5       29.93R FOG              
PORT LAVACA    CLOUDY    75  72  91 SE6       29.91F FOG              
CORPUS CHRISTI CLOUDY    75  74  96 CALM      29.90S                  
KINGSVILLE NAS CLOUDY    75  73  93 N3        29.90R                  
COTULLA        CLOUDY    74  68  81 SE10      29.90R                  
LAREDO         CLOUDY    74  69  85 E12       29.89R                  
BROWNSVILLE    CLOUDY    78  74  87 SE9       29.86S                  
PORT ISABEL    MOCLDY    77  74  90 SE9       29.87R                  
HEBBRONVILLE   CLOUDY    72  64  76 SE6       29.91S                  
MCALLEN        CLOUDY    76  71  85 E5        29.88R                  
WESLACO        NOT AVBL                                               
FALFURRIAS     CLOUDY    70  70 100 CALM      29.90R             

SKY/WX - Weather  TMP - Temperature  DP - Dew Point  RH - Relative Humidity
WIND - Wind Direction/Speed PRES - Barometric Pressure VSB - Visibility
WCI - Wind Chill Index E13G22 Wind - East Wind 13 mph/Gusts of 22 mph